Location: 433rd Scouts Home(Lloyd Manor Park, Etobicoke )
(43.6722°N, 79.5542°W)
Time: 09:20:01
(UTC-04:00)

Nauka - Pass Details

Date: 30 September 2021
Orbit: 417 x 423 km, 51.6° (Epoch: 26 October)

Event Time Altitude Azimuth Distance (km) Brightness Sun altitude
Rises 19:39:40 0° 301° (WNW) 2,365 ? -7.9°
Reaches altitude 10° 19:42:00 10° 315° (NW) 1,501 ? -8.4°
Maximum altitude 19:44:53 26° 14° (NNE) 878 ? -8.9°
Enters shadow 19:47:31 11° 70° (ENE) 1,418 ? -9.3°
